1485032400.51,21786,9.5,74268.5,-8.17,-40.41,-40.59,0,*5D
1485032401.71,21787,9.5,74268.3,-8.17,-40.53,-40.73,0,*57
1485032402.97,21788,9.5,74270.5,-8.19,-40.53,-40.59,0,*5E
1485032404.18,21789,9.5,74268.5,-8.17,-40.73,-40.91,0,*57
1485032405.41,21790,9.5,74268.8,-8.19,-40.73,-40.91,0,*51
1485032406.65,21791,9.5,74270.5,-8.19,-40.73,-40.91,0,*50
1485032407.88,21792,9.5,74268.3,-8.19,-40.53,-40.73,0,*5D
1485032409.13,21793,9.5,74270.8,-8.19,-40.73,-40.79,0,*54
1485032410.38,21794,9.5,74270.0,-8.19,-39.97,-40.35,0,*5F
1485032411.64,21795,9.5,74270.0,-8.17,-40.09,-40.21,0,*5C
1485032412.88,21796,9.5,74264.5,-8.19,-40.15,-40.35,0,*59
1485032414.17,21797,9.5,74270.3,-8.19,-39.97,-40.09,0,*53
1485032415.44,21798,9.5,74270.0,-8.19,-40.15,-40.41,0,*54
1485032416.72,21799,9.5,74268.0,-8.19,-39.97,-40.21,0,*57
1485032418.0,21800,9.5,74268.0,-8.19,-40.21,-40.41,0,*5D
1485032419.26,21801,9.5,74268.8,-8.19,-40.09,-40.15,0,*57
1485032420.52,21802,9.5,74268.0,-8.19,-40.09,-40.35,0,*56
1485032421.79,21803,9.5,74268.0,-8.19,-40.15,-40.41,0,*59
1485032423.03,21804,9.5,74268.0,-8.17,-40.09,-40.35,0,*5E
1485032424.28,21805,9.5,74270.5,-8.19,-39.97,-40.15,0,*5A
1485032425.54,21806,9.5,74270.8,-8.19,-40.35,-40.59,0,*57
1485032426.8,21807,9.5,74270.5,-8.17,-39.97,-40.21,0,*51
1485032428.06,21808,9.5,74270.0,-8.19,-40.09,-40.15,0,*5E
1485032429.32,21809,9.5,74268.8,-8.19,-40.35,-40.59,0,*58
1485032430.6,21810,9.5,74268.0,-8.19,-40.21,-40.59,0,*55
1485032431.86,21811,9.5,74268.3,-8.19,-40.59,-40.91,0,*5F
1485032433.1,21812,9.5,74270.5,-8.19,-40.91,-41.11,0,*51
1485032434.38,21813,9.5,74266.8,-8.19,-40.59,-40.79,0,*5B
1485032435.64,21814,9.5,74268.3,-8.19,-40.41,-40.73,0,*5F
1485032436.85,21815,9.5,74272.3,-8.21,-39.85,-40.03,0,*54
1485032438.09,21816,9.5,74268.3,-8.19,-39.91,-40.15,0,*5E
1485032439.33,21817,9.5,74270.5,-8.19,-39.91,-40.15,0,*5F
1485032440.59,21818,9.5,74268.0,-8.19,-40.09,-40.35,0,*5D
1485032441.85,21819,9.5,74270.0,-8.19,-40.21,-40.53,0,*56
1485032443.11,21820,9.5,74268.8,-8.19,-40.41,-40.73,0,*58
1485032444.36,21821,9.5,74264.8,-8.17,-40.21,-40.59,0,*59
1485032445.62,21822,9.5,74270.8,-8.19,-40.09,-40.35,0,*54
1485032446.89,21823,9.5,74268.3,-8.19,-40.15,-40.41,0,*5B
1485032448.15,21824,9.5,74268.0,-8.19,-40.09,-40.35,0,*52
1485032449.43,21825,9.5,74268.0,-8.19,-40.21,-40.41,0,*5A
1485032450.67,21826,9.5,74270.0,-8.19,-40.15,-40.35,0,*5D
1485032451.95,21827,9.5,74270.3,-8.19,-40.21,-40.41,0,*58
1485032453.24,21828,9.5,74270.0,-8.19,-40.09,-40.41,0,*5D
1485032454.54,21829,9.5,74268.0,-8.19,-39.59,-39.79,0,*52
1485032455.83,21830,9.5,74268.8,-8.19,-39.71,-40.09,0,*59
1485032457.12,21831,9.5,74268.3,-8.19,-39.79,-39.97,0,*59
1485032458.4,21832,9.5,74268.8,-8.19,-39.97,-40.21,0,*59
1485032459.63,21833,9.5,74266.5,-8.17,-39.97,-40.35,0,*53
1485032460.89,21834,9.5,74270.0,-8.19,-40.35,-40.59,0,*56
1485032462.15,21835,9.5,74270.0,-8.17,-40.41,-40.59,0,*5A
1485032463.44,21836,9.5,74268.5,-8.19,-40.41,-40.59,0,*57
1485032464.68,21837,9.5,74270.0,-8.17,-40.35,-40.59,0,*5B
1485032465.94,21838,9.5,74268.5,-8.19,-39.97,-40.15,0,*54
1485032467.22,21839,9.5,74268.8,-8.19,-40.21,-40.41,0,*57
1485032468.5,21840,9.5,74268.5,-8.19,-40.21,-40.41,0,*59
1485032469.73,21841,9.5,74266.8,-8.17,-40.35,-40.59,0,*5A
1485032470.99,21842,9.5,74268.8,-8.19,-40.21,-40.53,0,*58
1485032472.22,21843,9.5,74268.0,-8.17,-40.09,-40.35,0,*5D
1485032473.47,21844,9.5,74268.8,-8.19,-40.21,-40.53,0,*5E
1485032474.71,21845,9.5,74274.5,-8.19,-40.15,-40.35,0,*58
1485032476.0,21846,9.5,74268.5,-8.19,-40.09,-40.21,0,*53
1485032477.24,21847,9.5,74272.3,-8.19,-39.91,-40.15,0,*5A
1485032478.5,21848,9.5,74266.8,-8.19,-40.09,-40.15,0,*5A
1485032479.76,21849,9.5,74268.3,-8.19,-40.35,-40.59,0,*5C
1485032481.02,21850,9.5,74270.0,-8.17,-39.97,-40.09,0,*59
1485032482.3,21851,9.5,74268.5,-8.19,-39.97,-40.21,0,*5C
1485032483.57,21852,9.5,74268.5,-8.17,-39.79,-39.97,0,*52
1485032484.83,21853,9.44,74266.5,-8.17,-39.97,-40.09,0,*5A
1485032486.07,21854,9.5,74270.3,-8.19,-40.15,-40.53,0,*58
1485032487.31,21855,9.5,74270.3,-8.17,-40.15,-40.21,0,*52
1485032488.58,21856,9.5,74268.5,-8.17,-40.09,-40.21,0,*5C
1485032489.82,21857,9.5,74268.8,-8.17,-40.15,-40.41,0,*56
1485032491.07,21858,9.5,74268.8,-8.17,-40.15,-40.41,0,*59
1485032492.31,21859,9.5,74270.0,-8.17,-40.15,-40.41,0,*58
1485032493.58,21860,9.5,74266.8,-8.17,-39.79,-39.97,0,*53
1485032494.82,21861,9.5,74270.0,-8.17,-39.91,-40.21,0,*57
1485032496.09,21862,9.5,74270.5,-8.17,-39.59,-39.79,0,*53
1485032497.35,21863,9.5,74266.5,-8.17,-39.97,-40.21,0,*53
1485032498.6,21864,9.5,74268.3,-8.15,-40.15,-40.53,0,*57
1485032499.86,21865,9.5,74270.3,-8.15,-40.29,-40.53,0,*59
1485032501.09,21866,9.5,74270.8,-8.15,-40.03,-40.15,0,*50
1485032502.33,21867,9.5,74268.3,-8.13,-40.09,-40.47,0,*5A
1485032503.58,21868,9.5,74268.8,-8.15,-39.85,-39.91,0,*5C
1485032504.78,21869,9.5,74272.3,-8.17,-40.35,-40.53,0,*5A
1485032506.02,21870,9.5,74268.0,-8.17,-40.35,-40.59,0,*58
1485032507.28,21871,9.5,74272.3,-8.17,-40.21,-40.41,0,*55
1485032508.51,21872,9.5,74272.3,-8.17,-40.35,-40.59,0,*5A
1485032509.77,21873,9.5,74270.0,-8.15,-40.29,-40.53,0,*5E
1485032511.01,21874,9.5,74266.5,-8.15,-40.53,-40.91,0,*5A
1485032512.25,21875,9.5,74268.5,-8.15,-40.65,-40.91,0,*5E
1485032513.49,21876,9.44,74264.3,-8.17,-40.15,-40.41,0,*55
1485032514.71,21877,9.5,74268.5,-8.17,-40.15,-40.53,0,*57
1485032516.0,21878,9.5,74272.3,-8.19,-40.41,-40.59,0,*5D
1485032517.22,21879,9.5,74270.0,-8.17,-40.15,-40.53,0,*59
1485032518.48,21880,9.5,74270.3,-8.19,-40.21,-40.53,0,*56
1485032519.74,21881,9.5,74270.5,-8.17,-40.41,-40.59,0,*55
1485032520.96,21882,9.5,74270.5,-8.17,-40.15,-40.53,0,*5D
1485032522.2,21883,9.5,74268.8,-8.17,-40.35,-40.41,0,*5D
1485032523.41,21884,9.5,74268.0,-8.17,-40.15,-40.35,0,*5B
1485032524.65,21885,9.5,74270.0,-8.17,-40.09,-40.15,0,*55
1485032525.91,21886,9.5,74268.8,-8.17,-39.41,-39.53,0,*58
1485032527.17,21887,9.5,74268.5,-8.17,-39.59,-39.79,0,*58
1485032528.47,21888,9.5,74270.5,-8.15,-40.09,-40.29,0,*55
1485032529.73,21889,9.5,74270.8,-8.15,-40.03,-40.29,0,*5E
1485032530.99,21890,9.5,74266.8,-8.15,-40.03,-40.09,0,*54
1485032532.23,21891,9.5,74268.0,-8.13,-40.09,-40.35,0,*56
1485032533.49,21892,9.5,74270.3,-8.15,-40.29,-40.53,0,*51
1485032534.73,21893,9.5,74268.0,-8.15,-40.47,-40.65,0,*5D
1485032535.97,21894,9.5,74268.8,-8.15,-39.85,-39.91,0,*5F
1485032537.21,21895,9.5,74268.5,-8.15,-40.03,-40.35,0,*5E
1485032538.48,21896,9.5,74270.8,-8.15,-39.91,-40.09,0,*57
1485032539.72,21897,9.5,74268.5,-8.15,-39.91,-40.03,0,*5C
1485032540.95,21898,9.5,74268.8,-8.13,-40.29,-40.53,0,*5D
1485032542.19,21899,9.5,74270.8,-8.15,-40.65,-40.91,0,*5C
1485032543.45,21900,9.5,74270.8,-8.15,-40.03,-40.29,0,*5E
1485032544.69,21901,9.5,74270.3,-8.13,-39.71,-39.85,0,*5A
1485032545.93,21902,9.5,74270.0,-8.15,-39.65,-39.85,0,*5A
1485032547.14,21903,9.5,74268.5,-8.13,-39.85,-40.03,0,*53
1485032548.37,21904,9.5,74270.3,-8.13,-40.03,-40.29,0,*5C
1485032549.63,21905,9.5,74268.5,-8.15,-40.03,-40.29,0,*5B
1485032550.84,21906,9.5,74270.5,-8.13,-39.85,-40.03,0,*56
1485032552.06,21907,9.5,74274.3,-8.13,-39.91,-40.15,0,*55
1485032553.3,21908,9.5,74270.0,-8.13,-39.71,-39.85,0,*53
1485032554.54,21909,9.5,74270.0,-8.15,-39.65,-39.91,0,*54
1485032555.78,21910,9.5,74270.3,-8.13,-40.09,-40.35,0,*5E
1485032557.01,21911,9.5,74268.8,-8.13,-39.71,-40.03,0,*5B
1485032558.26,21912,9.5,74270.8,-8.13,-39.91,-40.09,0,*5C
1485032559.49,21913,9.5,74268.8,-8.11,-39.85,-40.03,0,*50
1485032560.76,21914,9.5,74268.5,-8.11,-39.79,-39.65,0,*5A
1485032562.05,21915,9.5,74270.0,-8.11,-39.41,-39.59,0,*5F
1485032563.35,21916,9.5,74270.0,-8.11,-39.79,-39.97,0,*55
1485032564.64,21917,9.5,74266.8,-8.11,-39.59,-39.79,0,*56
1485032565.94,21918,9.5,74270.8,-8.07,-39.59,-39.71,0,*56
1485032567.22,21919,9.5,74270.8,-8.07,-39.23,-39.23,0,*5D
1485032568.49,21920,9.5,74266.8,-8.07,-39.59,-39.91,0,*53
1485032569.78,21921,9.5,74270.5,-8.07,-39.59,-39.79,0,*54
1485032571.06,21922,9.5,74268.0,-8.07,-39.79,-39.91,0,*53
1485032572.29,21923,9.5,74268.0,-8.05,-39.35,-39.59,0,*5C
1485032573.55,21924,9.5,74270.8,-8.05,-39.71,-39.97,0,*59
1485032574.78,21925,9.5,74268.5,-8.05,-39.23,-39.35,0,*57
1485032576.03,21926,9.5,74268.8,-8.03,-38.97,-39.23,0,*5B
1485032577.32,21927,9.5,74268.8,-8.03,-39.53,-39.59,0,*5E
1485032578.61,21928,9.5,74270.0,-8.03,-39.59,-39.71,0,*51
1485032579.89,21929,9.5,74270.8,-8.03,-39.53,-39.71,0,*5A
1485032581.18,21930,9.5,74270.5,-8.03,-39.41,-39.71,0,*51
1485032582.45,21931,9.5,74268.0,-8.03,-39.71,-39.91,0,*5D
1485032583.71,21932,9.5,74270.0,-8.01,-39.71,-39.97,0,*5A
1485032584.95,21933,9.5,74266.0,-8.01,-39.85,-39.97,0,*50
1485032586.22,21934,9.5,74270.0,-8.01,-39.71,-39.97,0,*5C
1485032587.51,21935,9.5,74264.0,-7.99,-39.71,-39.97,0,*53
1485032588.75,21936,9.5,74268.0,-8.01,-39.85,-39.97,0,*55
1485032590.01,21937,9.5,74270.5,-7.99,-39.53,-39.65,0,*5C
1485032591.23,21938,9.5,74270.8,-8.01,-39.65,-39.65,0,*58
1485032592.46,21939,9.5,74270.3,-8.01,-39.47,-39.53,0,*5C
1485032593.73,21940,9.5,74270.0,-7.99,-39.53,-39.65,0,*5C
1485032595.02,21941,9.5,74270.3,-7.99,-39.71,-39.97,0,*50
1485032596.29,21942,9.5,74268.0,-7.99,-40.09,-40.35,0,*54
1485032597.53,21943,9.5,74268.3,-7.99,-39.65,-39.91,0,*51
1485032598.8,21944,9.5,74270.3,-7.99,-40.09,-40.35,0,*52
1485032600.04,21945,9.5,74270.0,-7.99,-39.65,-39.85,0,*52
1485032601.3,21946,9.5,74268.5,-7.99,-39.85,-39.97,0,*5C
1485032602.55,21947,9.5,74266.5,-7.99,-39.85,-40.15,0,*59
1485032603.79,21948,9.5,74268.3,-7.97,-39.85,-40.09,0,*55
1485032605.06,21949,9.5,74268.8,-7.97,-39.79,-39.79,0,*5E
1485032606.28,21950,9.5,74268.8,-7.97,-39.41,-39.47,0,*50
1485032607.49,21951,9.5,74270.0,-7.97,-39.47,-39.85,0,*59
1485032608.74,21952,9.5,74266.3,-7.97,-39.59,-39.65,0,*5B
1485032610.02,21953,9.5,74270.5,-7.95,-39.23,-39.23,0,*57
1485032611.3,21954,9.5,74270.5,-7.95,-39.53,-39.71,0,*50
1485032612.53,21955,9.5,74268.8,-7.97,-39.09,-39.23,0,*5B
1485032613.82,21956,9.5,74268.5,-7.95,-39.79,-39.97,0,*52
1485032615.08,21957,9.5,74268.8,-7.95,-39.71,-39.85,0,*58
1485032616.36,21958,9.5,74274.3,-7.95,-39.53,-39.71,0,*5C
1485032617.59,21959,9.5,74268.5,-7.93,-39.35,-39.53,0,*5B
1485032618.79,21960,9.5,74270.3,-7.93,-39.85,-40.15,0,*56
1485032619.99,21961,9.5,74270.8,-7.93,-39.35,-39.35,0,*50
1485032621.25,21962,9.5,74268.5,-7.91,-39.35,-39.53,0,*51
1485032622.51,21963,9.5,74270.5,-7.93,-39.59,-39.71,0,*58
1485032623.79,21964,9.5,74270.5,-7.91,-39.53,-39.79,0,*5F
1485032625.04,21965,9.5,74270.3,-7.93,-39.41,-39.53,0,*57
1485032626.3,21966,9.5,74270.8,-7.91,-39.29,-39.47,0,*5D
1485032627.55,21967,9.5,74268.0,-7.91,-39.29,-39.35,0,*59
1485032628.8,21968,9.5,74268.0,-7.91,-39.29,-39.35,0,*56
1485032630.05,21969,9.5,74266.8,-7.91,-39.29,-39.35,0,*57
1485032631.33,21970,9.5,74268.8,-7.91,-39.29,-39.29,0,*52
1485032632.59,21971,9.5,74270.3,-7.91,-39.53,-39.65,0,*56
1485032633.8,21972,9.5,74268.0,-7.89,-39.09,-39.09,0,*59
1485032635.08,21973,9.5,74270.0,-7.85,-38.91,-39.03,0,*5E
1485032636.37,21974,9.5,74270.5,-7.85,-39.23,-39.23,0,*53
1485032637.65,21975,9.5,74270.8,-7.85,-38.67,-38.91,0,*5B
1485032638.9,21976,9.5,74270.8,-7.85,-39.29,-39.47,0,*59
1485032640.18,21977,9.5,74268.3,-7.85,-39.29,-39.29,0,*50
1485032641.42,21978,9.5,74272.3,-7.83,-39.03,-39.09,0,*53
1485032642.67,21979,9.5,74268.3,-7.81,-38.85,-38.85,0,*5A
1485032643.93,21980,9.5,74266.5,-7.81,-38.85,-39.03,0,*53
1485032645.17,21981,9.5,74270.5,-7.81,-38.85,-38.97,0,*5E
1485032646.41,21982,9.5,74270.8,-7.81,-38.85,-38.97,0,*5D
1485032647.64,21983,9.5,74270.0,-7.79,-39.35,-39.41,0,*5B
1485032648.87,21984,9.5,74266.5,-7.79,-38.97,-39.15,0,*54
1485032650.11,21985,9.5,74266.5,-7.79,-39.41,-39.65,0,*58
1485032651.36,21986,9.5,74264.5,-7.79,-39.53,-39.79,0,*55
1485032652.57,21987,9.5,74268.3,-7.79,-39.35,-39.35,0,*5C
1485032653.79,21988,9.5,74268.3,-7.79,-39.35,-39.53,0,*53
1485032655.03,21989,9.5,74270.0,-7.79,-39.35,-39.71,0,*52
1485032656.29,21990,9.5,74268.3,-7.79,-39.41,-39.41,0,*5A
1485032657.54,21991,9.5,74268.0,-7.79,-39.03,-39.23,0,*59
1485032658.8,21992,9.44,74266.8,-7.77,-39.09,-39.29,0,*54
1485032660.04,21993,9.5,74268.5,-7.75,-39.09,-39.15,0,*58
1485032661.25,21994,9.5,74268.5,-7.75,-38.97,-39.09,0,*54
1485032662.51,21995,9.5,74268.8,-7.75,-39.15,-39.29,0,*5C
1485032663.77,21996,9.5,74268.8,-7.73,-39.03,-39.09,0,*5C
1485032665.05,21997,9.5,74268.5,-7.73,-39.29,-39.41,0,*59
1485032666.33,21998,9.44,74266.8,-7.73,-39.41,-39.41,0,*58
1485032667.57,21999,9.5,74268.8,-7.73,-39.47,-39.65,0,*59
1485032668.85,22000,9.5,74268.3,-7.73,-39.41,-39.53,0,*50
1485032670.06,22001,9.5,74266.5,-7.71,-38.85,-38.85,0,*50
1485032671.3,22002,9.5,74266.8,-7.69,-38.85,-38.85,0,*5A
1485032672.58,22003,9.5,74270.5,-7.69,-39.15,-39.23,0,*5E
1485032673.83,22004,9.5,74268.5,-7.69,-39.23,-39.47,0,*5E
1485032675.09,22005,9.5,74264.5,-7.69,-38.97,-39.15,0,*56
1485032676.31,22006,9.5,74268.0,-7.71,-39.23,-39.47,0,*55
1485032677.56,22007,9.44,74266.0,-7.69,-38.97,-39.03,0,*53
1485032678.85,22008,9.5,74268.0,-7.69,-39.15,-39.23,0,*55
1485032680.1,22009,9.44,74266.3,-7.67,-39.03,-39.23,0,*5D
1485032681.33,22010,9.5,74270.5,-7.67,-38.97,-39.03,0,*5B
1485032682.56,22011,9.5,74268.5,-7.67,-38.85,-39.03,0,*59
1485032683.79,22012,9.5,74270.3,-7.67,-39.03,-38.97,0,*59
1485032685.05,22013,9.5,74268.0,-7.65,-38.73,-38.79,0,*5C
1485032686.27,22014,9.5,74270.5,-7.65,-38.73,-38.73,0,*51
1485032687.52,22015,9.5,74268.0,-7.65,-38.73,-38.79,0,*5A
1485032688.76,22016,9.5,74270.3,-7.59,-38.35,-38.49,0,*57
1485032689.98,22017,9.5,74268.3,-7.59,-38.67,-38.73,0,*58
1485032691.22,22018,9.5,74268.0,-7.59,-38.67,-38.85,0,*5E
1485032692.45,22019,9.5,74270.8,-7.59,-38.85,-39.03,0,*5C
1485032693.72,22020,9.5,74268.0,-7.55,-38.79,-38.85,0,*56
1485032695.0,22021,9.5,74270.5,-7.55,-38.67,-38.79,0,*5B
1485032696.29,22022,9.5,74270.8,-7.55,-38.79,-38.79,0,*57
1485032697.55,22023,9.5,74270.5,-7.55,-38.67,-38.85,0,*5A
1485032698.84,22024,9.5,74268.3,-7.55,-39.03,-39.15,0,*56
1485032700.08,22025,9.5,74270.5,-7.55,-38.85,-38.85,0,*50
1485032701.32,22026,9.5,74264.8,-7.51,-38.97,-39.09,0,*51
1485032702.59,22027,9.5,74270.8,-7.51,-38.49,-38.61,0,*5C
1485032703.83,22028,9.5,74270.0,-7.51,-38.55,-38.61,0,*5E
1485032705.12,22029,9.5,74268.5,-7.51,-38.79,-38.91,0,*5E
1485032706.39,22030,9.5,74270.8,-7.53,-39.03,-39.15,0,*55
1485032707.68,22031,9.5,74266.5,-7.51,-38.79,-38.79,0,*51
1485032708.94,22032,9.5,74268.0,-7.49,-38.91,-39.15,0,*56
1485032710.2,22033,9.5,74268.8,-7.49,-38.91,-39.15,0,*57
1485032711.44,22034,9.5,74266.5,-7.49,-39.15,-39.35,0,*5F
1485032712.7,22035,9.5,74266.8,-7.47,-38.85,-39.03,0,*5D
1485032713.97,22036,9.5,74268.0,-7.49,-39.15,-39.23,0,*5A
1485032715.23,22037,9.44,74266.0,-7.49,-38.91,-39.15,0,*53
1485032716.52,22038,9.44,74268.0,-7.47,-39.03,-39.29,0,*57
1485032717.75,22039,9.5,74268.5,-7.47,-39.35,-39.47,0,*5B
1485032719.01,22040,9.5,74268.0,-7.47,-39.35,-39.53,0,*50
1485032720.25,22041,9.44,74266.5,-7.47,-39.85,-40.03,0,*51
1485032721.54,22042,9.5,74268.8,-7.47,-40.09,-40.29,0,*50
1485032722.81,22043,9.5,74266.5,-7.49,-39.79,-39.71,0,*55
1485032724.06,22044,9.5,74268.3,-7.47,-39.47,-39.65,0,*54
1485032725.3,22045,9.44,74266.3,-7.47,-39.85,-39.91,0,*50
1485032726.55,22046,9.44,74268.0,-7.49,-40.09,-40.15,0,*55
1485032727.75,22047,9.5,74268.8,-7.49,-40.03,-40.03,0,*59
1485032729.03,22048,9.5,74268.8,-7.49,-39.59,-39.71,0,*5C
1485032730.32,22049,9.44,74266.3,-7.47,-39.15,-39.29,0,*56
1485032731.55,22050,9.5,74268.8,-7.49,-39.23,-39.35,0,*58
1485032732.83,22051,9.5,74268.0,-7.47,-39.29,-39.29,0,*50
1485032734.1,22052,9.44,74264.5,-7.47,-39.09,-39.15,0,*5E
1485032735.34,22053,9.5,74268.8,-7.45,-38.85,-39.03,0,*5F
1485032736.56,22054,9.5,74270.8,-7.45,-39.29,-39.47,0,*5F
1485032737.8,22055,9.5,74270.5,-7.45,-39.15,-39.35,0,*54
1485032739.08,22056,9.5,74268.3,-7.43,-39.23,-39.29,0,*59
1485032740.31,22057,9.44,74264.0,-7.45,-39.15,-39.35,0,*56
1485032741.57,22058,9.44,74268.0,-7.43,-39.41,-39.47,0,*5B
1485032742.85,22059,9.5,74268.5,-7.43,-39.29,-39.41,0,*52
1485032744.13,22060,9.44,74266.0,-7.43,-39.23,-39.41,0,*52
1485032745.39,22061,9.44,74264.8,-7.43,-38.97,-39.23,0,*59
1485032746.64,22062,9.5,74268.5,-7.39,-38.97,-39.15,0,*52
1485032747.94,22063,9.5,74268.8,-7.39,-39.59,-39.71,0,*52
1485032749.23,22064,9.5,74270.0,-7.39,-39.71,-39.79,0,*57
1485032750.51,22065,9.5,74268.5,-7.39,-39.23,-39.53,0,*59
1485032751.77,22066,9.44,74264.3,-7.39,-39.35,-39.41,0,*5E
1485032753.06,22067,9.44,74266.5,-7.39,-39.59,-39.59,0,*5C
1485032754.35,22068,9.5,74268.5,-7.39,-39.15,-39.23,0,*56
1485032755.58,22069,9.44,74268.0,-7.37,-39.03,-39.35,0,*59
1485032756.83,22070,9.5,74268.8,-7.37,-39.41,-39.53,0,*57
1485032758.1,22071,9.5,74268.8,-7.37,-39.71,-39.71,0,*55
1485032759.37,22072,9.44,74266.0,-7.37,-39.59,-39.79,0,*54
1485032760.67,22073,9.44,74264.3,-7.39,-39.59,-39.59,0,*59
1485032761.91,22074,9.44,74266.8,-7.37,-39.79,-39.91,0,*56
1485032763.14,22075,9.5,74268.5,-7.37,-39.23,-39.35,0,*56
1485032764.37,22076,9.5,74268.3,-7.37,-39.35,-39.41,0,*51
1485032765.62,22077,9.5,74270.5,-7.37,-39.03,-39.15,0,*54
1485032766.89,22078,9.44,74266.8,-7.37,-39.15,-39.41,0,*5D
1485032768.18,22079,9.44,74264.0,-7.35,-39.59,-39.59,0,*5F
1485032769.48,22080,9.44,74266.8,-7.35,-39.59,-39.71,0,*53
1485032770.73,22081,9.44,74266.0,-7.35,-39.23,-39.35,0,*5F
1485032772.02,22082,9.5,74268.0,-7.35,-39.41,-39.53,0,*58
1485032773.31,22083,9.5,74268.8,-7.35,-39.59,-39.59,0,*5A
1485032774.57,22084,9.5,74268.0,-7.35,-39.35,-39.41,0,*5E
1485032775.78,22085,9.5,74268.8,-7.33,-39.65,-39.85,0,*54
1485032777.02,22086,9.44,74268.8,-7.33,-39.71,-39.85,0,*52
1485032778.27,22087,9.44,74268.3,-7.33,-39.53,-39.53,0,*58
1485032779.56,22088,9.44,74266.8,-7.35,-39.97,-40.09,0,*58
1485032780.77,22089,9.44,74270.3,-7.33,-39.85,-40.03,0,*56
1485032782.03,22090,9.5,74268.0,-7.33,-39.71,-39.71,0,*5E
1485032783.3,22091,9.5,74270.3,-7.33,-39.71,-39.79,0,*57
1485032784.51,22092,9.44,74268.0,-7.33,-39.85,-40.03,0,*5C
1485032785.8,22093,9.44,74266.8,-7.35,-39.59,-39.53,0,*51
1485032787.07,22094,9.5,74272.0,-7.35,-39.71,-39.91,0,*52
1485032788.28,22095,9.5,74270.3,-7.33,-39.85,-39.91,0,*5E
1485032789.58,22096,9.44,74264.0,-7.35,-40.09,-40.09,0,*5E
1485032790.78,22097,9.5,74270.3,-7.33,-39.35,-39.47,0,*5C
1485032792.02,22098,9.44,74264.8,-7.33,-39.79,-40.03,0,*55
1485032793.31,22099,9.44,74268.8,-7.35,-39.97,-40.09,0,*58
1485032794.52,22100,9.44,74268.8,-7.33,-39.85,-40.03,0,*56
1485032795.78,22101,9.44,74270.0,-7.35,-39.91,-40.09,0,*5E
1485032797.02,22102,9.44,74270.0,-7.33,-40.09,-40.35,0,*5B
1485032798.27,22103,9.5,74270.3,-7.33,-39.91,-40.09,0,*5A
1485032799.48,22104,9.44,74266.5,-7.33,-39.65,-39.65,0,*52
1485032800.7,22105,9.44,74270.0,-7.33,-39.47,-39.65,0,*53
1485032801.91,22106,9.5,74270.0,-7.33,-39.91,-40.03,0,*55
1485032803.12,22107,9.44,74268.3,-7.33,-39.85,-39.91,0,*54
1485032804.39,22108,9.44,74266.8,-7.35,-39.91,-39.97,0,*5E
1485032805.62,22109,9.44,74270.3,-7.33,-40.03,-40.21,0,*5F
1485032806.85,22110,9.44,74270.8,-7.33,-40.21,-40.53,0,*52
1485032808.08,22111,9.44,74266.3,-7.33,-40.21,-40.35,0,*53
1485032809.32,22112,9.44,74268.8,-7.33,-40.09,-40.35,0,*5A
1485032810.54,22113,9.44,74264.8,-7.33,-40.21,-40.47,0,*54
1485032811.83,22114,9.5,74270.5,-7.35,-39.97,-40.09,0,*5C
1485032813.1,22115,9.44,74268.8,-7.33,-40.09,-40.09,0,*52
1485032814.36,22116,9.44,74268.3,-7.33,-40.09,-40.21,0,*5B
1485032815.62,22117,9.44,74268.5,-7.35,-40.09,-40.15,0,*5B
1485032816.84,22118,9.44,74268.3,-7.33,-39.91,-40.03,0,*5A
1485032818.07,22119,9.44,74264.8,-7.33,-40.03,-40.09,0,*54
1485032819.28,22120,9.44,74264.8,-7.33,-39.85,-40.03,0,*54
1485032820.53,22121,9.44,74270.3,-7.33,-40.15,-40.41,0,*54
1485032821.8,22122,9.5,74268.0,-7.35,-39.79,-39.91,0,*56
1485032823.04,22123,9.5,74272.0,-7.33,-39.47,-39.53,0,*52
1485032824.27,22124,9.44,74268.5,-7.33,-39.53,-39.65,0,*55
1485032825.53,22125,9.5,74268.3,-7.33,-39.53,-39.71,0,*51
1485032826.75,22126,9.44,74266.8,-7.33,-39.65,-39.65,0,*52
1485032828.0,22127,9.44,74266.8,-7.31,-39.35,-39.53,0,*51
1485032829.24,22128,9.44,74270.8,-7.29,-39.29,-39.41,0,*59
1485032830.51,22129,9.44,74268.3,-7.31,-39.71,-39.91,0,*51
1485032831.76,22130,9.5,74270.5,-7.31,-40.03,-40.21,0,*57
1485032833.03,22131,9.5,74268.0,-7.31,-39.85,-39.71,0,*5D
1485032834.23,22132,9.5,74268.8,-7.29,-39.85,-40.03,0,*5C
1485032835.45,22133,9.44,74268.5,-7.29,-40.21,-40.47,0,*5D
1485032836.71,22134,9.44,74268.3,-7.31,-39.85,-40.09,0,*59
1485032837.98,22135,9.44,74268.5,-7.31,-39.71,-39.91,0,*5C
1485032839.22,22136,9.44,74268.8,-7.31,-39.85,-39.91,0,*54
1485032840.45,22137,9.44,74268.8,-7.29,-39.71,-39.65,0,*5C
1485032841.69,22138,9.5,74268.8,-7.31,-39.65,-39.65,0,*5F
1485032842.93,22139,9.44,74264.0,-7.29,-39.59,-39.65,0,*58
1485032844.16,22140,9.44,74266.5,-7.29,-39.65,-39.79,0,*54
1485032845.37,22141,9.5,74270.5,-7.29,-39.85,-40.03,0,*58
1485032846.62,22142,9.44,74268.3,-7.29,-40.21,-40.41,0,*5D
1485032847.88,22143,9.44,74266.3,-7.29,-39.79,-39.79,0,*5A
1485032849.12,22144,9.44,74264.8,-7.29,-39.79,-40.03,0,*5E
1485032850.38,22145,9.44,74266.0,-7.29,-39.79,-39.97,0,*5C
1485032851.62,22146,9.44,74268.3,-7.31,-39.65,-39.65,0,*56
1485032852.88,22147,9.44,74268.3,-7.31,-39.65,-39.71,0,*52
1485032854.11,22148,9.5,74268.8,-7.29,-39.85,-39.97,0,*52
1485032855.34,22149,9.5,74268.3,-7.29,-39.97,-40.15,0,*54
1485032856.54,22150,9.44,74266.8,-7.29,-39.91,-40.03,0,*5D
1485032857.77,22151,9.44,74268.0,-7.29,-39.85,-40.29,0,*51
1485032859.0,22152,9.44,74266.0,-7.29,-39.97,-40.15,0,*5E
1485032860.24,22153,9.44,74266.0,-7.31,-39.91,-39.91,0,*52
1485032861.47,22154,9.44,74270.8,-7.29,-39.85,-39.97,0,*5F
1485032862.72,22155,9.44,74268.0,-7.29,-39.97,-40.29,0,*56
1485032863.95,22156,9.44,74264.8,-7.29,-39.85,-39.97,0,*5D
1485032865.17,22157,9.44,74268.0,-7.29,-39.97,-40.03,0,*5C
1485032866.43,22158,9.44,74268.0,-7.29,-40.29,-40.59,0,*57
1485032867.65,22159,9.44,74264.8,-7.29,-40.03,-40.29,0,*59
1485032868.89,22160,9.5,74270.5,-7.29,-39.59,-39.65,0,*54
1485032870.1,22161,9.44,74268.3,-7.29,-39.65,-39.85,0,*54
1485032871.36,22162,9.44,74270.8,-7.27,-39.71,-39.91,0,*59
1485032872.63,22163,9.5,74268.5,-7.27,-39.91,-40.09,0,*59
1485032873.92,22164,9.5,74268.5,-7.27,-39.59,-39.71,0,*5B
1485032875.16,22165,9.44,74270.0,-7.27,-39.91,-39.91,0,*50
1485032876.44,22166,9.44,74268.8,-7.27,-39.97,-40.21,0,*50
1485032877.73,22167,9.44,74264.8,-7.27,-39.79,-39.79,0,*52
1485032879.0,22168,9.44,74270.0,-7.25,-39.79,-39.97,0,*5F
1485032880.29,22169,9.44,74268.0,-7.27,-39.79,-39.71,0,*54
1485032881.58,22170,9.44,74268.0,-7.27,-39.71,-39.71,0,*54
1485032882.82,22171,9.44,74266.5,-7.27,-39.91,-39.91,0,*55
1485032884.08,22172,9.5,74270.5,-7.27,-39.91,-39.97,0,*50
1485032885.33,22173,9.44,74270.0,-7.27,-40.15,-40.35,0,*55
1485032886.57,22174,9.44,74270.8,-7.25,-40.15,-40.41,0,*53
1485032887.84,22175,9.5,74270.8,-7.25,-39.59,-39.59,0,*53
1485032889.13,22176,9.44,74266.8,-7.27,-39.79,-39.97,0,*52
1485032890.35,22177,9.44,74266.8,-7.25,-40.15,-40.53,0,*53
1485032891.57,22178,9.44,74266.8,-7.25,-40.15,-40.35,0,*5C
1485032892.8,22179,9.5,74270.3,-7.25,-39.97,-40.35,0,*59
1485032894.09,22180,9.44,74270.3,-7.27,-39.71,-39.79,0,*53
1485032895.38,22181,9.5,74268.8,-7.27,-40.09,-40.09,0,*5A
1485032896.64,22182,9.44,74266.8,-7.27,-40.09,-40.35,0,*56
1485032897.89,22183,9.44,74268.0,-7.25,-40.21,-40.41,0,*5C
1485032899.18,22184,9.44,74270.0,-7.27,-40.21,-40.41,0,*59
1485032900.46,22185,9.44,74270.8,-7.27,-40.09,-40.21,0,*54
1485032901.73,22186,9.44,74268.0,-7.27,-39.91,-40.09,0,*52
1485032903.02,22187,9.44,74270.8,-7.27,-39.79,-39.97,0,*5C
1485032904.28,22188,9.44,74266.8,-7.25,-40.09,-40.21,0,*5B
1485032905.54,22189,9.44,74266.8,-7.27,-39.97,-40.35,0,*54
1485032906.82,22190,9.44,74268.3,-7.27,-39.97,-40.09,0,*53
1485032908.11,22191,9.44,74266.8,-7.27,-40.09,-40.21,0,*51
1485032909.38,22192,9.44,74266.5,-7.27,-39.79,-39.91,0,*5E
1485032910.62,22193,9.44,74266.0,-7.25,-39.91,-40.09,0,*54
1485032911.89,22194,9.44,74270.8,-7.27,-40.15,-40.41,0,*5F
1485032913.14,22195,9.44,74268.0,-7.25,-40.15,-40.41,0,*5C
1485032914.42,22196,9.44,74270.5,-7.27,-40.09,-40.21,0,*56
1485032915.72,22197,9.44,74268.0,-7.27,-39.79,-39.97,0,*5D